SCP
0 0 0 0 0 0 0 0 0 0 0 0 0 0 0 0 0 0 -0 0 -0 -0 -0 -0 -0 -0 -0 -0 -0 -0 -0 -0 -0 -0 -0 -0 -0 -0 0 0 0 0 0 0 0 0 0 0 0
0 0 0 0 0 0 0 0 0 0 -0 0 0 0 0 0 -0 -0 0 0 -0 -0 -0 -0 -0 -0 -0 -0 -0 -0 -0 -0 -0 -0 -0 -0 -0 0 0 0 0 0 0 0 0 0 0 0 0
0 0 0 0 0 0 0 0 0 0 -0 -0 0 0 0 0 0 0 0 0 -0 -0 -0 -0 -0 -0 -0 -0 -0 -0 -0 -0 -0 -0 -0 -0 0 0 0 0 0 0 0 0 0 0 0 0 0
0 0 0 0 0 0 0 0 0 -0 -0 0 0 0 0 0 0 0 0 0 -0 0 -0 -0 -0 -0 -0 -0 -0 -0 -0 -0 -0 -0 -0 0 0 0 0 0 0 0 0 0 0 0 0 0 0
0 0 0 0 0 0 0 0 -0 -0 0 0 0 0 0 -0 0 0 -0 -0 -0 -0 -0 -0 -0 -0 -0 -0 -0 -0 -0 -0 -0 -0 -0 0 0 0 0 0 0 0 0 0 0 0 0 0 0
0 0 0 0 0 0 0 0 -0 -0 0 0 0 0 0 0 0 0 -0 -0 -0 -0 -0 -0 -0 -0 -0 -0 -0 -0 -0 -0 -0 -0 0 0 0 0 0 0 0 0 0 0 0 0 0 0 0
0 0 0 0 0 0 0 0 0 0 0 0 0 -0 0 0 0 -0 -0 -0 -0 -0 -0 -0 -0 -0 -0 -0 -0 -0 -0 -0 0 0 0 0 0 0 0 0 0 0 0 0 0 0 0 0 0
0 0 0 0 0 0 0 0 0 0 0 0 -0 -0 -0 0 0 0 0 0 -0 -0 -0 -0 -0 0 0 0 -0 -0 -0 0 0 0 0 0 0 0 0 0 0 0 0 0 0 0 0 0 0
0 0 0 0 0 0 0 0 0 0 0 0 -0 -0 -0 0 0 0 0 0 0 0 -0 -0 -0 -0 0 0 0 0 0 0 -0 -0 0 0 0 0 0 0 0 0 0 0 0 0 0 0 0
0 0 0 0 0 0 0 0 0 0 0 0 -0 0 0 0 0 0 0 0 0 0 0 -0 -0 0 0 0 0 0 0 0 0 0 0 0 0 0 0 0 0 0 0 0 0 0 0 0 0
0 0 0 0 0 0 0 0 0 0 0 0 0 0 0 0 0 0 -0 0 0 -0 0 0 0 0 0 0 0 0 0 0 0 0 0 0 0 0 0 0 0 0 0 0 0 0 0 0 0
0 0 0 0 0 0 0 -0 0 0 0 0 0 1 1 0 0 0 -0 -0 -0 -0 -0 -0 0 0 0 0 0 0 0 0 0 0 0 0 0 0 0 0 0 0 0 0 0 0 0 0 0
0 0 0 0 0 0 0 0 -0 -0 0 0 1 1 1 0 0 0 0 -0 -0 -0 -0 -0 -0 -0 0 0 0 0 0 0 0 0 0 0 0 0 0 0 0 0 0 0 0 0 0 0 0
0 0 0 0 0 0 0 0 0 -0 0 0 1 1 1 1 0 0 0 -0 -0 -0 -0 -0 -0 0 0 0 0 0 0 0 0 0 0 0 0 0 0 0 0 0 0 0 0 0 0 0 0
0 0 0 0 0 0 0 0 0 -0 0 -0 0 1 2 1 1 0 0 0 -0 -0 0 0 0 0 0 0 0 0 0 0 0 0 0 0 0 0 0 0 0 0 0 0 0 0 0 0 0
0 0 0 0 0 0 0 0 0 0 0 0 0 2 2 2 1 1 1 0 0 0 0 0 0 0 0 0 0 0 0 0 0 0 0 0 0 0 0 0 0 0 0 -0 -0 -0 -0 0 0
0 0 0 0 0 0 0 0 0 0 0 0 1 1 2 2 2 2 1 0 0 0 0 0 0 0 0 0 0 0 0 0 0 0 0 0 0 0 0 0 0 -0 -0 -0 -0 -0 -0 0 0
0 0 0 0 0 0 0 0 0 0 0 0 0 0 2 2 2 1 1 1 1 1 0 0 0 0 0 0 0 0 0 0 0 0 0 0 0 0 0 0 0 -0 -0 -0 -0 -0 -0 -0 0
0 0 0 0 0 0 0 0 0 0 0 0 0 0 0 0 1 1 2 2 0 0 0 0 0 0 0 0 0 0 0 0 0 0 0 0 0 0 0 0 0 -0 -0 -0 -0 -0 -0 -0 0
0 0 0 0 0 0 0 0 0 0 0 0 0 -0 0 0 1 2 3 0 0 0 0 0 0 0 0 0 0 0 0 0 0 0 0 0 0 0 0 0 0 0 -0 -0 -0 -0 -0 -0 -0
0 0 0 0 0 0 0 0 0 0 0 0 0 0 0 0 0 2 1 0 0 0 0 0 0 0 0 0 0 0 0 0 0 0 0 0 0 0 0 0 0 0 0 -0 -0 -0 -0 -0 -0
0 0 0 0 0 0 0 0 0 0 0 0 0 0 0 0 0 1 1 0 0 0 0 0 0 0 0 0 0 0 0 0 0 0 0 0 0 0 0 0 0 0 0 0 -0 -0 -0 -0 0
0 0 0 0 0 0 0 0 0 0 0 0 0 0 0 0 0 1 1 0 0 0 0 0 0 0 0 0 0 0 0 0 0 0 0 0 0 0 0 0 0 0 0 0 0 -0 0 -0 -0
0 0 0 0 0 0 0 0 0 0 0 0 0 0 0 0 0 1 1 1 0 0 0 0 0 0 0 0 0 0 0 0 0 0 0 0 0 0 0 0 0 0 0 0 0 0 0 0 0
0 0 0 0 0 0 0 0 0 0 0 0 0 0 0 0 0 0 1 1 0 0 0 0 0 0 0 0 0 0 0 0 0 0 0 0 0 0 0 0 0 0 0 0 0 0 0 0 0
0 0 0 0 0 0 0 0 0 0 0 0 0 0 0 0 0 0 0 1 1 0 0 0 0 0 0 0 0 0 0 0 0 0 0 0 0 0 0 0 0 0 0 0 0 0 0 0 0
0 0 0 0 0 0 0 0 0 0 0 0 0 0 0 0 0 0 0 0 1 0 0 0 0 0 0 0 0 0 0 0 0 0 0 0 0 0 0 0 0 0 0 0 0 0 0 0 0
0 0 0 0 0 0 0 0 0 0 0 0 0 0 0 0 0 0 0 0 1 0 0 0 0 0 0 0 0 0 0 0 0 0 0 0 0 0 0 0 0 0 0 0 0 0 0 0 0
0 0 0 0 0 0 0 0 0 0 0 0 0 0 0 0 0 0 0 0 0 0 0 0 0 0 0 0 0 0 0 0 0 0 0 0 0 0 0 0 0 0 0 0 0 0 0 0 0
0 0 0 0 0 0 0 0 0 0 0 0 0 0 0 0 0 0 0 0 0 0 0 0 0 0 0 0 0 0 0 0 0 0 0 0 0 0 0 0 0 0 0 0 0 0 0 0 0
Wind_Speed_500mb
8 4 2 3 6 9 4 9 2 3 2 7 14 13 16 10 8 8 10 57 58 57 54 50 44 40 40 40 38 37 35 33 31 29 27 26 24 22 21 20 19 18 16 15 14 13 13 12 11
8 6 3 3 8 5 9 6 10 12 10 8 12 9 10 10 12 3 39 60 61 56 54 52 48 43 40 40 38 37 35 33 31 29 27 25 22 19 18 16 14 13 11 10 8 7 7 7 6
9 9 3 8 6 8 9 8 12 9 17 18 12 7 9 5 12 16 56 56 59 60 57 55 51 45 40 40 39 37 34 32 30 27 24 21 18 16 14 12 11 9 7 5 4 3 4 5 8
9 9 8 7 10 10 9 12 19 11 21 23 17 8 5 3 5 40 56 52 57 58 55 52 51 48 42 39 39 36 34 31 27 24 21 18 15 11 9 8 7 6 5 3 3 3 4 6 9
16 6 7 3 10 11 11 21 15 7 15 27 21 9 6 8 16 52 52 50 58 55 54 53 52 49 44 40 38 36 33 29 25 22 19 15 11 8 6 5 4 4 4 4 4 4 5 6 8
9 6 6 7 10 10 13 19 6 10 13 30 20 12 7 6 12 46 46 51 54 54 54 55 54 51 46 41 38 35 32 28 23 19 15 12 9 7 5 5 5 5 5 4 4 5 6 7 8
11 9 9 10 6 8 11 6 11 11 4 15 3 10 8 22 25 39 48 53 54 52 52 54 55 51 45 41 37 34 30 26 21 18 14 11 10 9 9 9 10 8 5 5 3 3 5 7 8
8 7 11 9 11 11 7 7 6 24 13 41 32 14 10 38 40 45 55 54 53 51 51 53 52 49 45 41 36 32 28 24 20 18 16 15 15 14 13 13 9 5 2 3 5 4 7 8 7
9 6 8 14 13 9 1 3 11 10 22 28 32 25 20 42 55 62 64 62 60 55 52 51 50 47 43 38 35 32 28 25 24 21 19 18 17 17 14 9 5 1 4 8 10 11 10 11 11
9 7 19 15 9 7 6 13 14 7 12 20 34 22 22 59 64 69 71 71 69 64 57 52 48 46 43 40 36 33 30 27 24 22 21 21 17 15 9 4 5 10 12 12 16 16 15 16 18
12 11 11 11 11 7 6 14 24 16 4 21 41 45 33 52 59 66 72 71 68 62 59 55 51 47 43 40 37 34 31 27 26 24 19 16 13 10 5 7 9 12 14 16 21 22 23 23 23
4 19 16 11 12 6 12 11 15 20 45 28 40 54 51 47 67 72 72 72 70 67 61 58 54 49 44 39 34 32 30 28 24 22 19 13 10 7 1 6 12 18 22 25 28 30 31 31 34
9 10 17 29 37 37 28 28 21 38 44 32 29 46 56 56 68 74 74 74 72 70 65 62 57 52 46 40 36 34 31 26 20 18 13 11 8 4 6 11 14 18 21 24 25 26 27 27 28
12 13 23 28 36 19 11 18 19 46 35 22 27 49 52 60 68 78 84 83 80 73 67 64 60 55 50 45 39 34 31 23 16 16 11 10 5 2 5 8 13 17 19 21 22 23 24 26 26
16 9 13 10 18 15 17 11 26 90 47 38 32 42 62 77 78 91 93 88 82 77 70 68 63 61 54 49 41 36 29 22 14 14 11 13 10 7 8 10 12 16 21 25 27 26 26 25 24
5 6 1 11 4 11 23 18 17 58 64 35 39 48 60 68 83 96 94 89 85 82 78 69 65 64 59 54 45 36 28 23 15 15 18 19 14 11 10 11 14 19 24 26 27 28 29 28 28
11 6 7 13 7 6 12 10 9 21 47 17 36 52 61 69 76 84 91 92 86 85 80 76 72 67 64 58 49 40 33 27 19 18 22 19 15 11 10 12 16 22 26 29 34 36 37 35 32
10 8 8 8 5 9 11 11 13 4 37 39 27 34 53 67 86 94 96 92 88 86 82 78 75 70 66 60 55 50 42 36 25 26 28 22 17 10 9 11 16 22 26 30 36 39 40 41 38
10 9 10 7 10 4 14 10 20 27 27 51 55 46 54 74 82 87 85 82 85 88 89 84 81 74 70 67 67 62 56 47 37 36 32 24 16 9 7 8 13 19 24 32 38 40 41 42 43
10 10 10 12 10 11 11 17 20 15 31 56 79 97 63 82 80 82 84 86 92 91 96 95 89 79 72 69 69 65 59 51 39 41 36 28 19 12 6 7 12 18 24 28 33 40 44 46 49
8 10 8 16 10 6 6 13 10 15 35 55 67 92 81 79 88 88 93 95 96 98 104 107 99 85 74 73 72 65 62 53 52 52 43 32 23 15 6 5 9 15 21 26 33 39 42 41 42
11 15 16 11 3 9 8 11 12 13 17 16 50 60 78 80 86 86 101 102 106 107 104 112 102 91 82 78 76 72 69 68 64 56 46 35 27 19 9 3 6 13 18 23 30 37 40 40 37
16 14 17 10 9 6 9 3 13 5 13 19 21 57 68 86 82 87 105 118 110 108 110 114 110 98 89 86 81 76 73 64 59 56 49 40 33 24 13 3 4 11 15 20 27 33 37 38 36
9 7 11 9 7 5 9 14 9 11 14 10 16 66 58 66 74 80 91 117 114 112 109 113 118 105 96 90 84 83 74 66 66 63 56 47 37 28 17 8 5 10 15 19 25 30 35 36 34
7 10 5 6 1 21 4 9 16 16 18 18 19 38 41 35 59 79 90 108 103 113 113 115 120 115 105 99 91 89 78 69 68 66 61 52 42 32 22 12 8 11 16 21 25 28 31 31 30
8 16 11 12 9 14 8 12 13 16 17 39 19 18 29 28 40 74 93 108 110 121 121 122 124 120 110 105 95 89 79 73 68 64 58 49 36 29 24 16 11 12 16 21 26 27 29 30 30
5 6 13 5 2 6 8 15 5 27 26 36 40 32 29 26 21 53 80 94 110 121 131 132 130 126 119 110 100 91 83 78 68 63 54 44 38 32 27 20 15 14 16 19 24 26 28 29 31
10 7 5 5 7 8 9 4 6 25 27 28 30 41 47 40 37 34 59 87 103 117 128 130 135 134 127 120 105 94 89 81 65 59 55 48 42 36 34 25 18 16 15 19 24 27 29 31 34
9 8 9 4 5 9 5 4 5 10 14 18 21 43 51 48 46 47 48 75 95 110 124 138 136 132 133 126 112 103 94 78 65 60 56 50 43 38 36 26 20 17 16 20 24 28 32 36 38
17 9 6 2 5 2 4 7 11 14 16 23 35 48 54 57 47 44 33 62 80 97 107 124 132 133 135 127 117 109 89 77 66 58 53 47 42 39 34 27 24 19 18 20 25 32 38 43 46
Wind_Direction_500mb
193 191 199 341 42 60 251 254 305 253 289 191 160 174 201 178 180 204 185 169 173 174 170 170 168 169 177 176 168 162 158 153 149 145 142 141 141 139 136 130 127 123 117 111 103 93 85 85 77
174 162 213 97 86 35 274 190 217 225 180 181 180 188 180 201 235 264 158 165 173 179 175 176 173 174 179 180 173 167 162 159 156 153 149 147 144 140 136 135 134 133 133 127 116 98 81 69 44
167 152 135 92 110 188 225 207 179 223 205 201 144 128 151 188 211 174 166 170 177 182 179 179 177 177 180 180 177 172 168 167 165 161 155 152 147 145 138 131 131 135 140 133 121 81 34 16 359
156 139 70 94 224 248 218 268 180 211 217 197 142 127 154 263 258 176 170 180 176 181 183 182 179 179 180 180 179 176 174 173 170 165 161 159 156 148 136 127 119 110 101 89 57 29 3 348 341
161 131 73 107 266 266 249 261 215 279 184 171 169 175 105 24 160 170 172 179 181 185 185 183 183 183 183 182 181 180 179 177 175 171 172 167 164 158 150 137 111 82 62 43 25 12 355 342 333
133 122 89 211 246 261 269 256 204 249 292 158 178 133 136 137 174 179 184 185 185 187 185 183 184 185 186 185 185 184 183 182 180 182 183 181 178 167 154 128 102 78 58 27 359 340 318 312 319
151 113 206 180 231 298 253 199 207 258 304 294 240 134 192 181 203 189 182 184 187 188 184 182 183 185 187 188 188 188 188 187 187 191 188 179 159 145 132 122 113 108 83 43 15 329 339 340 348
221 114 143 210 185 241 286 215 212 238 291 292 265 197 186 185 192 190 186 189 189 186 184 180 183 186 189 190 190 191 191 191 186 179 171 156 146 140 137 134 138 135 99 14 345 322 339 336 344
194 80 185 193 169 237 234 34 299 252 265 221 209 235 220 191 190 188 189 193 187 186 183 182 183 186 186 188 187 186 184 178 175 172 168 158 151 154 156 160 162 218 317 327 334 323 324 328 322
159 156 204 200 199 166 218 265 293 260 249 225 207 181 183 182 185 191 194 195 189 183 180 181 182 182 181 182 182 180 180 176 174 174 177 173 169 168 190 228 320 317 321 332 332 337 335 309 296
180 203 202 242 209 283 231 256 287 290 236 219 198 187 179 186 186 196 201 200 196 181 181 179 181 181 181 181 180 181 181 181 181 183 181 182 177 190 238 293 325 336 336 326 322 323 325 317 314
202 233 227 195 214 254 262 279 281 256 274 289 228 201 192 197 201 202 207 205 201 188 183 181 181 181 180 181 185 188 188 184 178 181 187 198 202 200 140 2 350 337 330 323 316 312 308 306 305
212 238 239 257 265 263 264 253 247 267 273 287 228 201 207 209 206 203 208 210 205 196 186 184 182 181 180 181 187 186 181 179 181 185 185 172 159 119 29 351 344 341 337 334 330 326 320 316 311
235 238 253 261 262 247 214 259 211 257 263 270 225 216 213 209 205 199 208 211 207 199 190 187 185 183 181 180 180 182 179 183 174 173 161 161 147 89 27 23 14 5 358 357 355 350 343 335 331
262 289 303 242 257 212 212 255 200 244 265 256 256 232 217 212 204 208 208 210 207 201 192 192 187 182 180 178 177 177 180 182 177 162 154 149 145 125 87 56 37 25 18 12 7 359 356 350 344
336 64 312 279 6 241 172 250 225 248 233 238 228 221 221 208 212 207 209 212 209 204 196 194 189 186 183 180 179 176 176 181 179 162 158 154 145 122 95 68 44 35 28 19 11 8 5 5 0
352 235 224 308 249 257 175 257 300 283 197 261 230 217 203 207 207 207 212 214 211 209 199 196 192 190 187 187 186 186 190 189 182 174 167 160 153 131 91 61 44 38 29 18 14 9 6 7 10
223 223 241 221 286 44 313 273 313 140 150 181 241 245 203 205 212 211 217 217 214 214 206 201 194 194 193 194 193 195 200 195 192 185 178 175 164 132 93 59 42 37 27 20 17 16 10 7 13
210 202 230 248 240 252 254 255 271 232 218 204 217 236 214 211 221 216 218 223 219 217 211 203 199 197 198 197 198 200 202 199 194 186 184 178 171 150 111 72 43 32 18 19 15 18 15 8 13
202 239 270 274 261 175 269 271 260 218 225 213 207 233 236 218 211 212 218 225 228 221 214 210 206 203 204 207 204 202 202 201 197 190 189 186 182 172 131 65 34 24 19 17 14 16 19 11 10
207 189 224 234 297 252 276 292 232 265 217 225 221 221 220 218 218 213 217 223 228 225 219 211 207 207 209 211 207 203 202 200 195 195 195 191 186 184 153 79 36 19 15 14 15 15 16 19 11
236 209 231 249 135 256 152 280 252 256 233 222 221 222 218 222 225 227 224 220 225 229 222 213 211 209 212 213 210 211 206 203 201 197 195 192 192 192 183 113 26 11 12 14 13 11 12 11 15
223 207 205 215 209 71 240 231 269 294 260 250 248 238 233 231 231 224 225 224 226 225 223 215 213 210 212 212 215 216 213 214 203 195 196 197 199 196 197 202 340 356 3 7 9 6 6 7 5
199 145 52 52 108 252 189 183 264 215 208 250 221 241 247 231 224 227 229 223 221 221 219 213 213 211 211 212 216 220 218 212 204 200 200 200 201 199 205 224 298 337 347 355 360 1 358 359 358
120 79 297 312 163 248 231 137 234 242 238 230 228 250 251 247 235 227 223 220 217 216 216 214 214 211 210 212 216 219 216 213 208 206 203 200 202 204 209 226 279 314 333 340 346 350 347 348 349
212 165 166 228 209 258 123 232 252 253 13 10 353 302 285 284 253 234 229 224 221 220 218 216 215 212 211 213 216 217 214 214 211 210 208 209 208 209 217 230 267 292 317 326 332 337 336 338 339
314 181 155 177 356 97 230 288 303 4 1 357 349 352 349 327 270 246 234 229 225 222 220 218 216 215 213 213 215 214 213 214 211 209 211 212 211 217 227 239 266 281 306 317 323 326 325 329 329
69 352 67 7 208 233 268 280 301 347 341 342 342 343 358 346 316 268 244 238 229 227 223 219 219 218 215 213 213 213 213 213 209 209 213 214 217 224 234 240 262 278 291 306 317 319 320 322 324
336 23 -0 125 140 196 214 273 331 304 312 324 330 344 4 6 338 300 244 236 234 228 224 224 220 220 217 214 213 214 213 209 208 214 218 220 223 232 231 240 256 262 283 304 316 320 322 321 320
65 48 48 65 207 226 177 244 332 323 312 338 344 347 6 15 6 336 277 228 227 221 218 221 222 221 221 216 215 216 210 206 205 212 217 221 225 223 231 242 248 251 276 303 318 323 321 319 316
Wind_Speed_850mb
8 4 2 3 6 9 4 9 2 3 2 7 14 13 16 10 8 8 10 57 58 57 54 50 44 40 40 40 38 37 35 33 31 29 27 26 24 22 21 20 19 18 16 15 14 13 13 12 11
8 6 3 3 8 5 9 6 10 12 10 8 12 9 10 10 12 3 39 60 61 56 54 52 48 43 40 40 38 37 35 33 31 29 27 25 22 19 18 16 14 13 11 10 8 7 7 7 6
9 9 3 8 6 8 9 8 12 9 17 18 12 7 9 5 12 16 56 56 59 60 57 55 51 45 40 40 39 37 34 32 30 27 24 21 18 16 14 12 11 9 7 5 4 3 4 5 8
9 9 8 7 10 10 9 12 19 11 21 23 17 8 5 3 5 40 56 52 57 58 55 52 51 48 42 39 39 36 34 31 27 24 21 18 15 11 9 8 7 6 5 3 3 3 4 6 9
16 6 7 3 10 11 11 21 15 7 15 27 21 9 6 8 16 52 52 50 58 55 54 53 52 49 44 40 38 36 33 29 25 22 19 15 11 8 6 5 4 4 4 4 4 4 5 6 8
9 6 6 7 10 10 13 19 6 10 13 30 20 12 7 6 12 46 46 51 54 54 54 55 54 51 46 41 38 35 32 28 23 19 15 12 9 7 5 5 5 5 5 4 4 5 6 7 8
11 9 9 10 6 8 11 6 11 11 4 15 3 10 8 22 25 39 48 53 54 52 52 54 55 51 45 41 37 34 30 26 21 18 14 11 10 9 9 9 10 8 5 5 3 3 5 7 8
8 7 11 9 11 11 7 7 6 24 13 41 32 14 10 38 40 45 55 54 53 51 51 53 52 49 45 41 36 32 28 24 20 18 16 15 15 14 13 13 9 5 2 3 5 4 7 8 7
9 6 8 14 13 9 1 3 11 10 22 28 32 25 20 42 55 62 64 62 60 55 52 51 50 47 43 38 35 32 28 25 24 21 19 18 17 17 14 9 5 1 4 8 10 11 10 11 11
9 7 19 15 9 7 6 13 14 7 12 20 34 22 22 59 64 69 71 71 69 64 57 52 48 46 43 40 36 33 30 27 24 22 21 21 17 15 9 4 5 10 12 12 16 16 15 16 18
12 11 11 11 11 7 6 14 24 16 4 21 41 45 33 52 59 66 72 71 68 62 59 55 51 47 43 40 37 34 31 27 26 24 19 16 13 10 5 7 9 12 14 16 21 22 23 23 23
4 19 16 11 12 6 12 11 15 20 45 28 40 54 51 47 67 72 72 72 70 67 61 58 54 49 44 39 34 32 30 28 24 22 19 13 10 7 1 6 12 18 22 25 28 30 31 31 34
9 10 17 29 37 37 28 28 21 38 44 32 29 46 56 56 68 74 74 74 72 70 65 62 57 52 46 40 36 34 31 26 20 18 13 11 8 4 6 11 14 18 21 24 25 26 27 27 28
12 13 23 28 36 19 11 18 19 46 35 22 27 49 52 60 68 78 84 83 80 73 67 64 60 55 50 45 39 34 31 23 16 16 11 10 5 2 5 8 13 17 19 21 22 23 24 26 26
16 9 13 10 18 15 17 11 26 90 47 38 32 42 62 77 78 91 93 88 82 77 70 68 63 61 54 49 41 36 29 22 14 14 11 13 10 7 8 10 12 16 21 25 27 26 26 25 24
5 6 1 11 4 11 23 18 17 58 64 35 39 48 60 68 83 96 94 89 85 82 78 69 65 64 59 54 45 36 28 23 15 15 18 19 14 11 10 11 14 19 24 26 27 28 29 28 28
11 6 7 13 7 6 12 10 9 21 47 17 36 52 61 69 76 84 91 92 86 85 80 76 72 67 64 58 49 40 33 27 19 18 22 19 15 11 10 12 16 22 26 29 34 36 37 35 32
10 8 8 8 5 9 11 11 13 4 37 39 27 34 53 67 86 94 96 92 88 86 82 78 75 70 66 60 55 50 42 36 25 26 28 22 17 10 9 11 16 22 26 30 36 39 40 41 38
10 9 10 7 10 4 14 10 20 27 27 51 55 46 54 74 82 87 85 82 85 88 89 84 81 74 70 67 67 62 56 47 37 36 32 24 16 9 7 8 13 19 24 32 38 40 41 42 43
10 10 10 12 10 11 11 17 20 15 31 56 79 97 63 82 80 82 84 86 92 91 96 95 89 79 72 69 69 65 59 51 39 41 36 28 19 12 6 7 12 18 24 28 33 40 44 46 49
8 10 8 16 10 6 6 13 10 15 35 55 67 92 81 79 88 88 93 95 96 98 104 107 99 85 74 73 72 65 62 53 52 52 43 32 23 15 6 5 9 15 21 26 33 39 42 41 42
11 15 16 11 3 9 8 11 12 13 17 16 50 60 78 80 86 86 101 102 106 107 104 112 102 91 82 78 76 72 69 68 64 56 46 35 27 19 9 3 6 13 18 23 30 37 40 40 37
16 14 17 10 9 6 9 3 13 5 13 19 21 57 68 86 82 87 105 118 110 108 110 114 110 98 89 86 81 76 73 64 59 56 49 40 33 24 13 3 4 11 15 20 27 33 37 38 36
9 7 11 9 7 5 9 14 9 11 14 10 16 66 58 66 74 80 91 117 114 112 109 113 118 105 96 90 84 83 74 66 66 63 56 47 37 28 17 8 5 10 15 19 25 30 35 36 34
7 10 5 6 1 21 4 9 16 16 18 18 19 38 41 35 59 79 90 108 103 113 113 115 120 115 105 99 91 89 78 69 68 66 61 52 42 32 22 12 8 11 16 21 25 28 31 31 30
8 16 11 12 9 14 8 12 13 16 17 39 19 18 29 28 40 74 93 108 110 121 121 122 124 120 110 105 95 89 79 73 68 64 58 49 36 29 24 16 11 12 16 21 26 27 29 30 30
5 6 13 5 2 6 8 15 5 27 26 36 40 32 29 26 21 53 80 94 110 121 131 132 130 126 119 110 100 91 83 78 68 63 54 44 38 32 27 20 15 14 16 19 24 26 28 29 31
10 7 5 5 7 8 9 4 6 25 27 28 30 41 47 40 37 34 59 87 103 117 128 130 135 134 127 120 105 94 89 81 65 59 55 48 42 36 34 25 18 16 15 19 24 27 29 31 34
9 8 9 4 5 9 5 4 5 10 14 18 21 43 51 48 46 47 48 75 95 110 124 138 136 132 133 126 112 103 94 78 65 60 56 50 43 38 36 26 20 17 16 20 24 28 32 36 38
17 9 6 2 5 2 4 7 11 14 16 23 35 48 54 57 47 44 33 62 80 97 107 124 132 133 135 127 117 109 89 77 66 58 53 47 42 39 34 27 24 19 18 20 25 32 38 43 46
Wind_Direction_850mb
193 191 199 341 42 60 251 254 305 253 289 191 160 174 201 178 180 204 185 169 173 174 170 170 168 169 177 176 168 162 158 153 149 145 142 141 141 139 136 130 127 123 117 111 103 93 85 85 77
174 162 213 97 86 35 274 190 217 225 180 181 180 188 180 201 235 264 158 165 173 179 175 176 173 174 179 180 173 167 162 159 156 153 149 147 144 140 136 135 134 133 133 127 116 98 81 69 44
167 152 135 92 110 188 225 207 179 223 205 201 144 128 151 188 211 174 166 170 177 182 179 179 177 177 180 180 177 172 168 167 165 161 155 152 147 145 138 131 131 135 140 133 121 81 34 16 359
156 139 70 94 224 248 218 268 180 211 217 197 142 127 154 263 258 176 170 180 176 181 183 182 179 179 180 180 179 176 174 173 170 165 161 159 156 148 136 127 119 110 101 89 57 29 3 348 341
161 131 73 107 266 266 249 261 215 279 184 171 169 175 105 24 160 170 172 179 181 185 185 183 183 183 183 182 181 180 179 177 175 171 172 167 164 158 150 137 111 82 62 43 25 12 355 342 333
133 122 89 211 246 261 269 256 204 249 292 158 178 133 136 137 174 179 184 185 185 187 185 183 184 185 186 185 185 184 183 182 180 182 183 181 178 167 154 128 102 78 58 27 359 340 318 312 319
151 113 206 180 231 298 253 199 207 258 304 294 240 134 192 181 203 189 182 184 187 188 184 182 183 185 187 188 188 188 188 187 187 191 188 179 159 145 132 122 113 108 83 43 15 329 339 340 348
221 114 143 210 185 241 286 215 212 238 291 292 265 197 186 185 192 190 186 189 189 186 184 180 183 186 189 190 190 191 191 191 186 179 171 156 146 140 137 134 138 135 99 14 345 322 339 336 344
194 80 185 193 169 237 234 34 299 252 265 221 209 235 220 191 190 188 189 193 187 186 183 182 183 186 186 188 187 186 184 178 175 172 168 158 151 154 156 160 162 218 317 327 334 323 324 328 322
159 156 204 200 199 166 218 265 293 260 249 225 207 181 183 182 185 191 194 195 189 183 180 181 182 182 181 182 182 180 180 176 174 174 177 173 169 168 190 228 320 317 321 332 332 337 335 309 296
180 203 202 242 209 283 231 256 287 290 236 219 198 187 179 186 186 196 201 200 196 181 181 179 181 181 181 181 180 181 181 181 181 183 181 182 177 190 238 293 325 336 336 326 322 323 325 317 314
202 233 227 195 214 254 262 279 281 256 274 289 228 201 192 197 201 202 207 205 201 188 183 181 181 181 180 181 185 188 188 184 178 181 187 198 202 200 140 2 350 337 330 323 316 312 308 306 305
212 238 239 257 265 263 264 253 247 267 273 287 228 201 207 209 206 203 208 210 205 196 186 184 182 181 180 181 187 186 181 179 181 185 185 172 159 119 29 351 344 341 337 334 330 326 320 316 311
235 238 253 261 262 247 214 259 211 257 263 270 225 216 213 209 205 199 208 211 207 199 190 187 185 183 181 180 180 182 179 183 174 173 161 161 147 89 27 23 14 5 358 357 355 350 343 335 331
262 289 303 242 257 212 212 255 200 244 265 256 256 232 217 212 204 208 208 210 207 201 192 192 187 182 180 178 177 177 180 182 177 162 154 149 145 125 87 56 37 25 18 12 7 359 356 350 344
336 64 312 279 6 241 172 250 225 248 233 238 228 221 221 208 212 207 209 212 209 204 196 194 189 186 183 180 179 176 176 181 179 162 158 154 145 122 95 68 44 35 28 19 11 8 5 5 0
352 235 224 308 249 257 175 257 300 283 197 261 230 217 203 207 207 207 212 214 211 209 199 196 192 190 187 187 186 186 190 189 182 174 167 160 153 131 91 61 44 38 29 18 14 9 6 7 10
223 223 241 221 286 44 313 273 313 140 150 181 241 245 203 205 212 211 217 217 214 214 206 201 194 194 193 194 193 195 200 195 192 185 178 175 164 132 93 59 42 37 27 20 17 16 10 7 13
210 202 230 248 240 252 254 255 271 232 218 204 217 236 214 211 221 216 218 223 219 217 211 203 199 197 198 197 198 200 202 199 194 186 184 178 171 150 111 72 43 32 18 19 15 18 15 8 13
202 239 270 274 261 175 269 271 260 218 225 213 207 233 236 218 211 212 218 225 228 221 214 210 206 203 204 207 204 202 202 201 197 190 189 186 182 172 131 65 34 24 19 17 14 16 19 11 10
207 189 224 234 297 252 276 292 232 265 217 225 221 221 220 218 218 213 217 223 228 225 219 211 207 207 209 211 207 203 202 200 195 195 195 191 186 184 153 79 36 19 15 14 15 15 16 19 11
236 209 231 249 135 256 152 280 252 256 233 222 221 222 218 222 225 227 224 220 225 229 222 213 211 209 212 213 210 211 206 203 201 197 195 192 192 192 183 113 26 11 12 14 13 11 12 11 15
223 207 205 215 209 71 240 231 269 294 260 250 248 238 233 231 231 224 225 224 226 225 223 215 213 210 212 212 215 216 213 214 203 195 196 197 199 196 197 202 340 356 3 7 9 6 6 7 5
199 145 52 52 108 252 189 183 264 215 208 250 221 241 247 231 224 227 229 223 221 221 219 213 213 211 211 212 216 220 218 212 204 200 200 200 201 199 205 224 298 337 347 355 360 1 358 359 358
120 79 297 312 163 248 231 137 234 242 238 230 228 250 251 247 235 227 223 220 217 216 216 214 214 211 210 212 216 219 216 213 208 206 203 200 202 204 209 226 279 314 333 340 346 350 347 348 349
212 165 166 228 209 258 123 232 252 253 13 10 353 302 285 284 253 234 229 224 221 220 218 216 215 212 211 213 216 217 214 214 211 210 208 209 208 209 217 230 267 292 317 326 332 337 336 338 339
314 181 155 177 356 97 230 288 303 4 1 357 349 352 349 327 270 246 234 229 225 222 220 218 216 215 213 213 215 214 213 214 211 209 211 212 211 217 227 239 266 281 306 317 323 326 325 329 329
69 352 67 7 208 233 268 280 301 347 341 342 342 343 358 346 316 268 244 238 229 227 223 219 219 218 215 213 213 213 213 213 209 209 213 214 217 224 234 240 262 278 291 306 317 319 320 322 324
336 23 -0 125 140 196 214 273 331 304 312 324 330 344 4 6 338 300 244 236 234 228 224 224 220 220 217 214 213 214 213 209 208 214 218 220 223 232 231 240 256 262 283 304 316 320 322 321 320
65 48 48 65 207 226 177 244 332 323 312 338 344 347 6 15 6 336 277 228 227 221 218 221 222 221 221 216 215 216 210 206 205 212 217 221 225 223 231 242 248 251 276 303 318 323 321 319 316